Tracking 27107 objects as of 21-Mar-2023
HD Live streaming from Space Station
objects crossing your sky now

CHUBUSAT-1

Track CHUBUSAT-1 now!
10-day predictions
CHUBUSAT-1 is classified as:


NORAD ID: 40300
Int'l Code: 2014-070C
Perigee: 471.1 km
Apogee: 491.7 km
Inclination: 97.2 °
Period: 94.1 minutes
Semi major axis: 6852 km
RCS: Unknown
Launch date: November 6, 2014
Source: Japan (JPN)
Launch site: Orenburg, Russia (OREN)

Uplink (MHz): 145.980
Downlink (MHz): 437.485
Beacon (MHz): 437.485
Mode: 1200bps 9600bps CW
Call sign: JJ2YJY
Status: Inactive


CHUBUSAT-1 is a 110-pound (50-kg) satellite that was designed by Nagoya University in Japan and carries optical and infrared cameras to observe Earth and space debris.
Your satellite tracking list
Your tracking list is empty




NASA's NSSDC Master Catalog

Two Line Element Set (TLE):
1 40300U 14070C   23080.60954800  .00015051  00000-0  51040-3 0  9999
2 40300  97.1504 129.9473 0015017 251.4376 230.7197 15.30517187464957
Source of the keplerian elements: Caltech